Regional Weather Roundup
Issued by NWS Spokane, WA

Home | Current Version | Previous Version | Text Only | Print | Product List | Glossary On
Versions: 1 2 3 4 5 6 7 8 9 10 11 12 13 14 15 16 17 18 19 20 21 22 23 24 25 26 27 28 29 30 31 32 33 34 35 36 37 38 39 40 41 42 43 44 45 46 47 48 49 50
000
NZUS01 KOTX 311710
RWROTX
EASTERN WASHINGTON/NORTHERN IDAHO ROUNDUP
NATIONAL WEATHER SERVICE, SPOKANE WA
1000 AM PDT MON AUG 31 2015

Note: "fair" indicated few or no clouds below 12,000 feet with no
significant weather and/or obstructions to visibility.

...NORTHEAST WASHINGTON AND NORTHERN IDAHO PANHANDLE...

CITY           SKY/WX    TMP DP  RH WIND       PRES   REMARKS
SPOKANE INTL   PTSUNNY   58  44  60 S14       30.05R
SPOKANE DOWNTO PTSUNNY   61  46  57 S12       30.06R
COEUR D ALENE  CLOUDY    61  46  59 SW13G21   30.06R
DEER PARK      PTSUNNY   57  46  66 S14       30.06R
SANDPOINT      CLOUDY    55  46  71 W6        30.06R
BONNERS FERRY  CLOUDY    55  45  67 S9G16     30.02S

...SOUTHEAST WASHINGTON AND SOUTHERN IDAHO PANHANDLE...

CITY           SKY/WX    TMP DP  RH WIND       PRES   REMARKS
WALLA WALLA    SUNNY     68  45  43 SW15      30.05S
PULLMAN/MOSCOW PTSUNNY   62  43  49 S8        30.09R
LEWISTON       MOSUNNY   66  47  50 NE3       30.05S
LOWELL           N/A     57  52  83 CALM      30.10F

...COLUMBIA BASIN...

CITY           SKY/WX    TMP DP  RH WIND       PRES   REMARKS
EPHRATA        PTSUNNY   68  44  42 SW18      29.97S
MOSES LAKE     PTSUNNY   66  46  48 S13       29.99F
TRI CITIES     SUNNY     69  48  47 SW15      30.03S
HERMISTON      SUNNY     69  46  43 SW10G22   30.03F
PENDLETON      MOSUNNY   67  44  43 W13G20    30.05F

...EAST SLOPES CASCADES...

CITY           SKY/WX    TMP DP  RH WIND       PRES   REMARKS
THE DALLES     MOSUNNY   66  49  54 VRB5      30.04F
YAKIMA         CLOUDY    68  46  45 S6        30.00F
ELLENSBURG     CLOUDY    61  45  55 W6        30.00S
WENATCHEE      CLOUDY    62  43  49 CALM      29.95S
OMAK           CLOUDY    61  42  49 SE21      29.95R

...SOUTHERN BRITISH COLUMBIA...

CITY           SKY/WX    TMP DP  RH WIND       PRES   REMARKS
PENTICTON      CLOUDY    63  43  48 S25G33    29.88R
CASTLEGAR      CLOUDY    54  50  87 S8        30.00R
CRANBROOK      PTSUNNY   57  41  54 S16G29    29.96R

...WESTERN MONTANA...

CITY           SKY/WX    TMP DP  RH WIND       PRES   REMARKS
MISSOULA       PTSUNNY   57  46  66 NW3       30.08R

...NEIGHBORING CITIES...

CITY           SKY/WX    TMP DP  RH WIND       PRES   REMARKS
SEATTLE        CLOUDY    62  53  72 SW15G24   29.99R
CALGARY        PTSUNNY   64  36  34 SW7       29.70S



USA.gov is the U.S. government's official web portal to all federal, state and local government web resources and services.